Weather History for KPRG - December, 2012

Change the Weather History Date:

Friday, December 21, 2012

  Actual Average (KHUF) Record (KHUF)
Temperature  
Mean Temperature 23 °F 30 °F  
Max Temperature 28 °F 38 °F 65 °F (1967)
Min Temperature 18 °F 22 °F -12 °F (1989)
Degree Days  
Heating Degree Days 42 35  
Month to date heating degree days 675  
Since 1 July heating degree days 1753  
Cooling Degree Days 0 0  
Month to date cooling degree days 0  
Year to date cooling degree days 993  
Moisture  
Dew Point 19 °F    
Average Humidity 83    
Maximum Humidity 91    
Minimum Humidity 73    
Precipitation  
Precipitation 0.00 in 0.12 in 2.29 in (2013)
Month to date precipitation 1.80  
Year to date precipitation 43.91  
Sea Level Pressure  
Sea Level Pressure 30.00 in    
Wind  
Wind Speed 26 mph (WNW)    
Max Wind Speed 37 mph    
Max Gust Speed 47 mph    
Visibility 9 miles    
Events Snow    
T = Trace of Precipitation, MM = Missing Value Source: NWS Daily Summary

Daily Weather History Graph

Daily Weather History Graph

Search for Another Location

Airport or City:

Trip Planner

Search our weather history database for the weather conditions in past years. The results will help you decide how hot, cold, wet, or windy it might be!

Date:

Astronomy

Dec. 21, 2012 Rise Set
Actual Time 7:08 AM CST 4:29 PM CST
Civil Twilight 6:37 AM CST 5:00 PM CST
Nautical Twilight 6:03 AM CST 5:34 PM CST
Astronomical Twilight 5:31 AM CST 6:07 PM CST
Moon 12:16 PM CST (12/21) 12:55 AM CST (12/21)
Length of Visible Light 10h 22m
Length of Day
9h 21m
Waxing Gibbous, 65% of the Moon is Illuminated
Dec 21
Waxing Gibbous
Dec 28
Full
Jan 4
Last Quarter
Jan 11
New
Jan 18
First Quarter

Hourly Weather History & Observations

Time (CST) Temp. Windchill Dew Point Humidity Pressure Visibility Wind Dir Wind Speed Gust Speed Precip Events Conditions
12:15 AM 26.6 °F 9.1 °F 23.9 °F 90% 29.67 in 3.0 mi West 35.7 mph 47.2 mph N/A Snow Light Snow
12:35 AM 26.4 °F 9.8 °F 23.5 °F 89% 29.68 in 4.0 mi West 31.1 mph 44.9 mph N/A Snow Light Snow
12:55 AM 26.1 °F 8.1 °F 23.0 °F 88% 29.70 in 5.0 mi West 36.8 mph 47.2 mph N/A Snow Light Snow
1:15 AM 25.7 °F 8.1 °F 23.2 °F 90% 29.71 in 1.5 mi West 34.5 mph 43.7 mph N/A Snow Light Snow
1:35 AM 25.3 °F 8.3 °F 23.0 °F 91% 29.73 in 0.8 mi West 31.1 mph 41.4 mph N/A Snow Snow
1:55 AM 25.2 °F 7.8 °F 23.0 °F 91% 29.74 in 1.0 mi West 32.2 mph 42.6 mph N/A Snow Snow
2:15 AM 24.6 °F 7.1 °F 22.3 °F 91% 29.75 in 2.0 mi West 32.2 mph 40.3 mph N/A Snow Light Snow
2:35 AM 24.8 °F 7.1 °F 21.4 °F 87% 29.76 in 5.0 mi West 33.4 mph 44.9 mph N/A   Overcast
2:55 AM 24.6 °F 7.3 °F 21.4 °F 87% 29.77 in 4.0 mi West 31.1 mph 36.8 mph N/A   Overcast
3:15 AM 24.6 °F 7.6 °F 21.2 °F 87% 29.78 in 4.0 mi West 29.9 mph 39.1 mph N/A   Overcast
3:35 AM 24.6 °F 6.8 °F 20.8 °F 86% 29.79 in 7.0 mi West 33.4 mph 41.4 mph N/A   Overcast
3:55 AM 24.3 °F 7.4 °F 20.7 °F 86% 29.80 in 7.0 mi WNW 28.8 mph 39.1 mph N/A   Overcast
4:15 AM 23.7 °F 5.9 °F 20.1 °F 86% 29.80 in 7.0 mi West 32.2 mph 39.1 mph N/A   Overcast
4:35 AM 23.5 °F 6.7 °F 19.8 °F 85% 29.82 in 10.0 mi West 27.6 mph 40.3 mph N/A   Overcast
4:55 AM 23.0 °F 6.0 °F 19.2 °F 85% 29.82 in 10.0 mi West 27.6 mph 35.7 mph N/A   Overcast
5:15 AM 22.1 °F 4.8 °F 18.3 °F 85% 29.83 in 10.0 mi West 27.6 mph 38.0 mph N/A   Overcast
5:35 AM 21.6 °F 4.0 °F 17.6 °F 85% 29.85 in 10.0 mi West 27.6 mph 40.3 mph N/A   Overcast
5:55 AM 21.2 °F 4.5 °F 17.4 °F 85% 29.86 in 10.0 mi West 24.2 mph 36.8 mph N/A   Scattered Clouds
6:15 AM 21.0 °F 3.6 °F 17.2 °F 85% 29.87 in 10.0 mi WNW 26.5 mph 34.5 mph N/A   Scattered Clouds
6:35 AM 20.7 °F 4.1 °F 16.7 °F 85% 29.88 in 10.0 mi WNW 23.0 mph 34.5 mph N/A   Scattered Clouds
6:55 AM 20.3 °F 2.0 °F 16.3 °F 85% 29.89 in 10.0 mi West 28.8 mph 36.8 mph N/A   Scattered Clouds
7:15 AM 20.1 °F 2.7 °F 16.2 °F 85% 29.91 in 10.0 mi West 25.3 mph 34.5 mph N/A   Scattered Clouds
7:35 AM 19.9 °F 2.8 °F 15.8 °F 84% 29.92 in 10.0 mi WNW 24.2 mph 34.5 mph N/A   Scattered Clouds
7:55 AM 20.1 °F 2.7 °F 16.2 °F 85% 29.93 in 10.0 mi WNW 25.3 mph 31.1 mph N/A   Mostly Cloudy
8:15 AM 20.1 °F 3.4 °F 16.2 °F 85% 29.94 in 10.0 mi WNW 23.0 mph 29.9 mph N/A   Mostly Cloudy
8:35 AM 20.7 °F 2.8 °F 16.3 °F 83% 29.95 in 10.0 mi WNW 27.6 mph 36.8 mph N/A   Mostly Cloudy
8:55 AM 20.8 °F 3.7 °F 16.7 °F 84% 29.97 in 10.0 mi WNW 25.3 mph 32.2 mph N/A   Mostly Cloudy
9:15 AM 21.6 °F 4.3 °F 16.7 °F 82% 29.98 in 10.0 mi WNW 26.5 mph 38.0 mph N/A   Overcast
9:35 AM 22.3 °F 4.4 °F 17.6 °F 82% 29.98 in 10.0 mi WNW 29.9 mph 38.0 mph N/A   Scattered Clouds
9:55 AM 23.0 °F 6.3 °F 17.8 °F 80% 29.99 in 10.0 mi WNW 26.5 mph 36.8 mph N/A   Scattered Clouds
10:15 AM 23.9 °F 8.4 °F 18.5 °F 80% 29.99 in 10.0 mi WNW 23.0 mph 32.2 mph N/A   Scattered Clouds
10:35 AM 24.6 °F 10.1 °F 19.2 °F 80% 29.99 in 10.0 mi WNW 20.7 mph 31.1 mph N/A   Clear
10:55 AM 25.3 °F 10.3 °F 19.8 °F 79% 30.00 in 10.0 mi WNW 23.0 mph 31.1 mph N/A   Clear
11:15 AM 26.2 °F 11.9 °F 20.5 °F 79% 30.00 in 10.0 mi WNW 21.9 mph 33.4 mph N/A   Clear
11:35 AM 27.1 °F 12.4 °F 21.2 °F 78% 30.00 in 10.0 mi WNW 24.2 mph 29.9 mph N/A   Clear
11:55 AM 27.3 °F 12.7 °F 21.4 °F 78% 30.01 in 10.0 mi WNW 24.2 mph 33.4 mph N/A   Clear
12:15 PM 27.3 °F 11.8 °F 21.2 °F 78% 30.01 in 10.0 mi WNW 27.6 mph 36.8 mph N/A   Scattered Clouds
12:35 PM 27.3 °F 12.1 °F 21.2 °F 78% 30.01 in 10.0 mi WNW 26.5 mph 32.2 mph N/A   Clear
12:55 PM 27.5 °F 12.9 °F 21.2 °F 77% 30.02 in 10.0 mi WNW 24.2 mph 32.2 mph N/A   Clear
1:15 PM 27.9 °F 14.0 °F 21.4 °F 77% 30.03 in 10.0 mi WNW 21.9 mph 29.9 mph N/A   Clear
1:35 PM 28.2 °F 13.9 °F 21.6 °F 76% 30.03 in 10.0 mi WNW 24.2 mph 31.1 mph N/A   Clear
1:55 PM 28.4 °F 15.1 °F 21.9 °F 77% 30.04 in 10.0 mi WNW 20.7 mph 26.5 mph N/A   Clear
2:15 PM 28.4 °F 14.4 °F 21.2 °F 74% 30.05 in 10.0 mi WNW 23.0 mph 28.8 mph N/A   Clear
2:35 PM 28.4 °F 16.2 °F 21.7 °F 76% 30.06 in 10.0 mi WNW 17.3 mph 24.2 mph N/A   Clear
2:55 PM 28.4 °F 15.1 °F 21.4 °F 75% 30.07 in 10.0 mi WNW 20.7 mph 29.9 mph N/A   Clear
3:15 PM 28.4 °F 15.4 °F 21.0 °F 74% 30.08 in 10.0 mi WNW 19.6 mph 26.5 mph N/A   Clear
3:35 PM 28.2 °F 15.2 °F 21.2 °F 75% 30.08 in 10.0 mi WNW 19.6 mph 25.3 mph N/A   Clear
3:55 PM 27.9 °F 15.5 °F 20.3 °F 73% 30.09 in 10.0 mi WNW 17.3 mph 24.2 mph N/A   Clear
4:15 PM 27.1 °F 14.9 °F 20.3 °F 75% 30.10 in 10.0 mi WNW 16.1 mph 21.9 mph N/A   Clear
4:35 PM 26.4 °F 14.5 °F 20.3 °F 78% 30.12 in 10.0 mi WNW 15.0 mph - N/A   Clear
4:55 PM 25.7 °F 13.5 °F 20.1 °F 79% 30.12 in 10.0 mi WNW 15.0 mph 21.9 mph N/A   Clear
5:15 PM 25.2 °F 12.4 °F 19.9 °F 81% 30.13 in 10.0 mi WNW 16.1 mph - N/A   Clear
5:35 PM 24.6 °F 14.4 °F 19.4 °F 81% 30.14 in 10.0 mi WNW 10.4 mph - N/A   Clear
5:55 PM 24.8 °F 12.9 °F 19.0 °F 79% 30.15 in 10.0 mi WNW 13.8 mph - N/A   Clear
6:15 PM 24.3 °F 13.3 °F 18.9 °F 80% 30.17 in 10.0 mi WNW 11.5 mph - N/A   Clear
6:35 PM 23.7 °F 12.1 °F 18.9 °F 82% 30.18 in 10.0 mi NW 12.7 mph 16.1 mph N/A   Clear
6:55 PM 23.7 °F 12.6 °F 18.7 °F 81% 30.18 in 10.0 mi WNW 11.5 mph - N/A   Clear
7:15 PM 23.0 °F 11.1 °F 18.5 °F 83% 30.19 in 10.0 mi WNW 12.7 mph - N/A   Clear
7:35 PM 22.6 °F 11.3 °F 18.1 °F 83% 30.20 in 10.0 mi WNW 11.5 mph - N/A   Clear
7:55 PM 22.1 °F 10.6 °F 18.0 °F 84% 30.20 in 10.0 mi WNW 11.5 mph - N/A   Clear
8:15 PM 21.9 °F 11.0 °F 17.6 °F 83% 30.21 in 10.0 mi WNW 10.4 mph - N/A   Clear
8:35 PM 21.6 °F 10.6 °F 17.4 °F 84% 30.21 in 10.0 mi WNW 10.4 mph - N/A   Clear
8:55 PM 21.2 °F 10.1 °F 17.2 °F 85% 30.21 in 10.0 mi WNW 10.4 mph - N/A   Clear
9:15 PM 21.0 °F 11.4 °F 16.9 °F 84% 30.21 in 10.0 mi WNW 8.1 mph - N/A   Clear
9:35 PM 20.3 °F 10.6 °F 16.5 °F 85% 30.22 in 10.0 mi WNW 8.1 mph - N/A   Clear
9:55 PM 19.9 °F 10.1 °F 16.2 °F 85% 30.21 in 10.0 mi WNW 8.1 mph - N/A   Clear
10:15 PM 19.4 °F 10.4 °F 15.8 °F 86% 30.22 in 10.0 mi WNW 6.9 mph - N/A   Clear
10:35 PM 19.4 °F 7.9 °F 15.8 °F 86% 30.23 in 10.0 mi West 10.4 mph - N/A   Clear
10:55 PM 19.4 °F 8.6 °F 15.8 °F 86% 30.24 in 10.0 mi West 9.2 mph - N/A   Clear
11:15 PM 19.0 °F 8.2 °F 15.4 °F 86% 30.24 in 10.0 mi West 9.2 mph - N/A   Clear
11:35 PM 18.9 °F 8.0 °F 15.4 °F 87% 30.24 in 10.0 mi West 9.2 mph - N/A   Clear
11:55 PM 18.5 °F 9.3 °F 14.9 °F 86% 30.23 in 10.0 mi WNW 6.9 mph - N/A   Clear